Weather History for Beaufort MCAS, SC

Change the Weather History Date:

Friday, July 18, 2014

  Actual Average Record
Temperature  
Mean Temperature 80 °F -  
Max Temperature 88 °F 88 °F 100 °F (1934)
Min Temperature 73 °F 73 °F 63 °F (1946)
Cooling Degree Days 15    
Growing Degree Days 30 (Base 50)    
Moisture  
Dew Point 69 °F    
Average Humidity 68    
Maximum Humidity 93    
Minimum Humidity 49    
Precipitation  
Precipitation 0.00 in - - ()
Sea Level Pressure  
Sea Level Pressure 30.10 in    
Wind  
Wind Speed 5 mph (SE)    
Max Wind Speed 14 mph    
Max Gust Speed 20 mph    
Visibility 10 miles    
Events      
Averages and records for this station are not official NWS values.
T = Trace of Precipitation, MM = Missing Value Source: NWS Daily Summary

Daily Weather History Graph

Daily Weather History Graph

Search for Another Location

Airport:

Trip Planner

Search our weather history database for the weather conditions in past years. The results will help you decide how hot, cold, wet, or windy it might be!

Date:

Astronomy

Jul. 18, 2014 Rise Set
Actual Time 6:28 AM EDT 8:29 PM EDT
Civil Twilight 6:00 AM EDT 8:57 PM EDT
Nautical Twilight 5:26 AM EDT 9:30 PM EDT
Astronomical Twilight 4:50 AM EDT 10:06 PM EDT
Moon 12:13 AM EDT (7/18) 1:16 PM EDT (7/18)
Length of Visible Light 14h 56m
Length of Day
14h 01m
Waning Gibbous, 55% of the Moon is Illuminated
Jul 18
Waning Gibbous
Jul 18
Last Quarter
Jul 26
New
Aug 3
First Quarter
Aug 10
Full

Hourly Weather History & Observations

Time (EDT) Temp. Heat Index Dew Point Humidity Pressure Visibility Wind Dir Wind Speed Gust Speed Precip Events Conditions
12:56 AM 77.0 °F - 71.1 °F 82% 30.06 in 10.0 mi Calm Calm - N/A   Mostly Cloudy
1:56 AM 78.1 °F - 72.0 °F 81% 30.06 in 10.0 mi SSE 4.6 mph - N/A   Clear
2:56 AM 77.0 °F - 71.1 °F 82% 30.05 in 10.0 mi Calm Calm - N/A   Clear
3:56 AM 77.0 °F - 71.1 °F 82% 30.05 in 10.0 mi SE 3.5 mph - N/A   Clear
4:56 AM 73.9 °F - 72.0 °F 93% 30.06 in 9.0 mi East 5.8 mph - N/A   Clear
5:56 AM 75.0 °F - 71.1 °F 87% 30.08 in 10.0 mi East 4.6 mph - N/A   Clear
6:56 AM 73.9 °F - 71.1 °F 91% 30.09 in 9.0 mi East 4.6 mph - N/A   Partly Cloudy
7:56 AM 77.0 °F - 72.0 °F 84% 30.11 in 10.0 mi East 8.1 mph - N/A   Scattered Clouds
8:56 AM 81.0 °F 84.9 °F 71.1 °F 72% 30.12 in 10.0 mi ESE 8.1 mph - N/A   Scattered Clouds
9:56 AM 82.9 °F 87.0 °F 70.0 °F 65% 30.12 in 10.0 mi ESE 10.4 mph - N/A   Scattered Clouds
10:56 AM 84.0 °F 87.8 °F 69.1 °F 61% 30.13 in 10.0 mi ESE 8.1 mph - N/A   Scattered Clouds
11:56 AM 86.0 °F 87.6 °F 64.9 °F 49% 30.13 in 10.0 mi SE 8.1 mph - N/A   Scattered Clouds
12:56 PM 87.1 °F 89.2 °F 66.0 °F 49% 30.12 in 10.0 mi South 5.8 mph - N/A   Mostly Cloudy
1:56 PM 87.1 °F 90.6 °F 68.0 °F 53% 30.12 in 10.0 mi South 11.5 mph 19.6 mph N/A   Mostly Cloudy
2:56 PM 87.1 °F 90.6 °F 68.0 °F 53% 30.11 in 10.0 mi SSE 13.8 mph 18.4 mph N/A   Mostly Cloudy
3:56 PM 86.0 °F 88.2 °F 66.0 °F 51% 30.10 in 10.0 mi SSE 10.4 mph - N/A   Mostly Cloudy
4:56 PM 84.9 °F 87.1 °F 66.0 °F 53% 30.10 in 10.0 mi South 11.5 mph 18.4 mph N/A   Mostly Cloudy
5:56 PM 84.0 °F 86.5 °F 66.9 °F 56% 30.10 in 10.0 mi SSE 12.7 mph 17.3 mph N/A   Mostly Cloudy
6:56 PM 82.9 °F 85.4 °F 66.9 °F 58% 30.10 in 10.0 mi SSE 11.5 mph - N/A   Clear
7:56 PM 81.0 °F 83.0 °F 66.0 °F 60% 30.12 in 10.0 mi SSE 9.2 mph - N/A   Clear
8:56 PM 80.1 °F 82.3 °F 66.9 °F 64% 30.12 in 10.0 mi SSE 8.1 mph - N/A   Clear
9:56 PM 79.0 °F - 66.9 °F 66% 30.12 in 10.0 mi SSE 4.6 mph - N/A   Clear
10:56 PM 77.0 °F - 69.1 °F 76% 30.13 in 10.0 mi South 3.5 mph - N/A   Clear
11:56 PM 78.1 °F - 70.0 °F 76% 30.12 in 10.0 mi SE 5.8 mph - N/A   Clear